www.pogodaiklimat.ru

Погода и климат >> Архив погоды >> Аргентина >> Buenos Aires


ПОГОДА в Buenos Aires

  • Прогноз погоды в Buenos Aires
  • Монитор погоды в Buenos Aires
  • Климат города

АРХИВ ПОГОДЫ в Buenos Aires

Время (UTC), дата Ветер
(напр.,м/с)
 
Видим.   Явления Облачность Т
(С)
Тd
(С)
f
(%)
Тe
(С)
Тes
(С)
Комфортность P
(гПа)
Po
(гПа)
Тmin
(С)
Tmax
(С)
R
(мм)
R24
(мм)
S
(см)
03 20.04 С 2 10 км ясно +24.4 +20.9 81 +31 +31 очень
душно
1013.6 1010.6
06 20.04 С 4 10 км 8/0
[Cs]
+24.2 +20.8 100 +23 +23 комфорт 1012.7 1009.8
09 20.04 С 2 10 км 10/4 450 м
[Sc As op]
+23.8 +20.9 84 +30 +30 очень
душно
1011.9 1009.0
12 20.04 С 3 10 км в посл. час гроза {дождь} 10/5 360 м
[Frnb Ac As]
+22.0 +20.8 93 +28 +29 душно 1011.3 1008.4 +21.8 +24.5 5
15 20.04 С 5 10 км {дождь} 10/8 360 м
[St Ac As]
+23.7 +20.8 84 +30 +30 очень
душно
1012.6 1009.7
18 20.04 СЗ 3 9000 м слабый дождь 10/8 450 м
[St As op]
+22.4 +20.1 87 +29 +29 очень
душно
1011.1 1008.2 6
21 20.04 С 2 8000 м слабый дождь 10/6 450 м
[St As op]
+21.4 +20.8 96 +27 +27 душно 1010.6 1007.7
00 21.04 С 2 8000 м слабая морось {дождь} 10/5 450 м
[St As op]
+21.3 +20.7 96 +27 +27 душно 1011.2 1008.2 +21.0 +24.2 11
03 21.04 СЗ 2 10 км в посл. час морось 6/6 360 м
[Sc]
+20.8 +20.3 97 +26 +26 душно 1011.3 1008.4
06 21.04 штиль 0 8000 м дождь {морось} 10/10 300 м
[St]
+20.8 +20.5 98 +25 +25 комфорт 1011.6 1008.8 2
09 21.04 ЮЗ 1 10 км в посл. час морось 10/10 300 м
[St]
+20.3 +20.1 99 +26 +26 душно 1011.3 1008.4
12 21.04 ЮВ 1 10 км в посл. час морось 10/10 450 м
[St]
+20.8 +20.6 99 +27 +27 душно 1012.7 1009.8 +20.0 +21.6 2
15 21.04 ЮВ 3 10 км 10/10 450 м
[St]
+22.4 +20.6 90 +29 +29 очень
душно
1013.3 1010.4
18 21.04 В 2 10 км 9/6 450 м
[Sc Ac trans]
+24.8 +20.4 77 +31 +32 очень
душно
1011.4 1008.5
21 21.04 В 1 10 км 9/6 540 м
[Sc Cs]
+23.6 +19.6 78 +29 +29 душно 1011.1 1008.2
00 22.04 ЮВ 1 10 км 10/10 450 м
[Sc]
+22.0 +19.5 86 +28 +28 душно 1011.3 1008.4 +20.8 +25.3
03 22.04 ЮВ 2 10 км 10/10 450 м
[Sc]
+21.4 +19.4 88 +26 +26 душно 1011.2 1008.2
06 22.04 ЮВ 1 10 км 10/10 450 м
[St]
+21.1 +19.9 93 +26 +26 душно 1010.7 1007.8
09 22.04 штиль 0 10 км 10/10 450 м
[St]
+21.0 +20.2 95 +26 +26 душно 1010.9 1008.0
12 22.04 штиль 0 10 км 3/0
[Ac As]
+22.0 +20.2 90 +28 +30 душно 1011.8 1008.9 +20.2 +22.0
15 22.04 штиль 0 10 км 4/4 600 м
[Sc]
+26.4 +19.7 67 +32 +40 очень
душно
1012.0 1009.0
18 22.04 С 2 10 км 4/0
[Cs]
+25.7 +19.8 70 +31 +37 очень
душно
1010.5 1007.6
21 22.04 С 1 10 км 6/0
[Cs]
+23.4 +20.0 81 +30 +31 очень
душно
1010.1 1007.2
00 23.04 В 4 10 км гроза без осадков 10/10 450 м
[Cb cap]
+22.9 +20.1 84 +30 +30 очень
душно
1012.3 1009.4 +22.0 +27.2
03 23.04 В 3 10 км в посл. час гроза {дождь} 10/10 450 м
[St]
+20.6 +20.3 98 +26 +26 душно 1010.5 1007.6
06 23.04 ЮВ 2 10 км {гроза, дождь} 10/10 450 м
[St]
+21.2 +20.6 96 +26 +26 душно 1012.6 1009.7 18
09 23.04 ЮВ 1 10 км 10/10 450 м
[St]
+19.7 +19.4 98 +24 +24 комфорт 1012.7 1009.8
12 23.04 ЮВ 4 8000 м дымка 10/10 450 м
[St]
+19.6 +19.3 98 +22 +22 комфорт 1014.7 1011.8 +19.1 +23.0 18
15 23.04 ЮВ 3 10 км 10/10 450 м
[St]
+20.4 +19.1 92 +25 +25 комфорт 1017.5 1014.5
18 23.04 В 2 10 км {морось} 10/8 450 м
[St Ac As]
+20.8 +18.3 86 +26 +26 душно 1017.2 1014.4 0.0
21 23.04 В 2 10 км 4/1 540 м
[Cu hum Ci fib]
+21.5 +17.5 78 +26 +26 душно 1018.1 1015.2
00 24.04 В 4 10 км 1/1 540 м
[Sc Ci fib]
+19.7 +16.6 82 +22 +22 комфорт 1020.3 1017.3 +19.6 +22.1
03 24.04 СВ 3 10 км 10/10 600 м
[Sc]
+18.7 +15.5 82 +20 +20 1021.2 1018.2
06 24.04 ЮВ 2 10 км 10/10 600 м
[Sc]
+18.0 +15.5 85 +19 +19 1021.3 1018.4
09 24.04 ЮВ 1 10 км 10/10 600 м
[Sc]
+17.2 +15.2 88 +19 +19 1021.2 1018.2
12 24.04 В 2 10 км 10/10 750 м
[Sc]
+18.8 +15.4 81 +21 +21 комфорт 1022.4 1019.4 +17.0 +19.8 0.0
15 24.04 СВ 2 10 км 9/9 750 м
[Sc]
+21.4 +17.6 79 +26 +27 душно 1021.4 1018.4
18 24.04 СВ 4 9000 м слабая морось 10/10 540 м
[St]
+21.2 +18.4 84 +25 +25 комфорт 1019.0 1016.0 0.0
21 24.04 В 3 9000 м слабая морось 10/10 480 м
[St]
+21.1 +19.0 88 +25 +25 комфорт 1018.5 1015.6
00 25.04 В 1 10 км в посл. час морось 10/10 450 м
[St]
+20.3 +19.5 95 +25 +25 комфорт 1019.6 1016.6 +18.8 +22.4 0.5
03 25.04 СВ 2 10 км 10/10 450 м
[St]
+20.7 +19.9 95 +26 +26 душно 1019.2 1016.4
06 25.04 С 1 10 км 10/10 450 м
[St]
+20.8 +19.9 95 +27 +27 душно 1018.8 1016.0
09 25.04 С 2 9000 м дымка 10/10 450 м
[St]
+21.1 +19.9 93 +26 +26 душно 1018.8 1016.0
12 25.04 С 2 10 км 6/4 600 м
[Sc Ac As]
+20.9 +19.8 93 +26 +27 душно 1019.0 1016.0 +20.3 +21.1 0.5
15 25.04 штиль 0 10 км 6/5 600 м
[Cu hum Cs]
+25.6 +20.8 75 +32 +38 очень
душно
1019.5 1016.6
18 25.04 СЗ 2 10 км 8/4 750 м
[Cu Sc Ac trans Cs]
+26.6 +20.6 70 +33 +36 очень
душно
1017.8 1014.9
21 25.04 С 2 10 км 3/0
[Cs]
+23.6 +20.3 82 +29 +29 душно 1018.0 1015.2
00 26.04 СВ 2 10 км ясно +21.8 +20.4 92 +28 +28 душно 1018.5 1015.6 +20.9 +28.6
03 26.04 С 1 10 км ясно +21.4 +20.5 95 +27 +27 душно 1018.1 1015.2
06 26.04 С 4 10 км ясно +21.5 +20.4 93 +27 +27 душно 1018.0 1015.2
09 26.04 С 1 10 км ясно +21.6 +20.2 92 +27 +27 душно 1016.3 1013.4
12 26.04 СЗ 3 10 км 9/0
[Ac As Cs]
+22.4 +19.6 84 +28 +29 душно 1016.6 1013.7 +21.3 +22.4
15 26.04 С 4 10 км 10/0
[Ac trans Cs]
+24.8 +20.7 78 +31 +35 очень
душно
1016.0 1013.0
18 26.04 СЗ 2 10 км 10/0
[Ac As Cs]
+26.7 +21.2 72 +34 +37 очень
душно
1012.4 1009.4
21 26.04 С 3 10 км 9/0
[Ac As Cs]
+26.1 +21.2 74 +33 +33 очень
душно
1011.2 1008.2

 

Местоположение метеостанции Buenos Aires (Аргентина): широта -34.58 долгота -58.48 высота над уровнем моря 25 м.

В архиве по умолчанию представлена погода в Buenos Aires за последнюю неделю. Архивные данные за месяц целиком и за предыдущие месяцы, начиная с января 2011 года, Вы можете получить, выбрав интересующий диапазон дат из раскрывающегося списка и нажав кнопку "Ввод!".


*Определитесь, кто Вы:
робот инопланетянин человек

Внимание! Время в таблицах - всемирное. Для получения местного времени необходимо прибавить поправку, которая в Buenos Aires равна -3 ч.

Смотрите также архив погоды в соседних городах и на ближайших метеорологических станциях:

Погода в Buenos Aires Aeropuerto (Аргентина) (7 км)
Погода в Ezeiza (Аргентина) (26 км)
Погода в Colonia (Уругвай) (61 км)
Погода в La Plata (Аргентина) (68 км)
Погода в Mercedes (Уругвай) (153 км)
Погода в Las Flores (Аргентина) (175 км)
Погода в Gualeguaychu (Аргентина) (176 км)
Погода в Melilla (Уругвай) (205 км)
Погода в Dolores (Аргентина) (205 км)
Погода в Prado (Уругвай) (211 км)

Пояснения к столбцам:

Ветер - указаны скорость ветра в м/с - средняя за 10 мин, порывы в срок и между сроками (в фигурных скобках) и направление, откуда дует ветер: С - северный, СВ - северо-восточный, В - восточный, ЮВ - юго-восточный, Ю - южный, ЮЗ - юго-западный, З - западный, СЗ - северо-западный.
Видимость - горизонтальная дальность видимости в метрах или километрах. При видимости от 1 до 10 км при отсутствии осадков обычно наблюдается дымка, при ухудшении видимости до 1 км и менее - туман. В сухую погоду видимость может ухудшаться дымом, пылью или мглою.
Явления - указаны атмосферные явления, наблюдавшиеся в срок или в последний час перед сроком; фигурными скобками обозначены явления, наблюдавшиеся между сроками (за 1-3 часа до срока); квадратными скобками обозначены град или гололедные отложения с указанием их диаметра в мм.
Облачность - указаны через наклонную черту общая и нижняя облачность в баллах и высота нижней границы облаков в метрах; квадратными скобками обозначены формы облаков: Ci - перистые, Cs - перисто-слоистые, Cc - перисто-кучевые, Ac - высококучевые, As - высокослоистые, Sc - слоисто-кучевые, Ns - слоисто-дождевые, Cu - кучевые, Cb - кучево-дождевые. Подробнее классификацию облаков см. в Атласе облаков (PDF).
T - Температура воздуха - температура, измеренная на высоте 2 м над землей.
Td - Температура точки росы - температура, при понижении до которой содержащийся в воздухе водяной пар достигнет насыщения.
f - Относительная влажность воздуха - влажноcть воздуха, измеренная на высоте 2 м над землей.
Te - Эффективная температура - температура, которую ощущает одетый по сезону человек в тени. Характеристика душности погоды. При расчете учитывается влияние влажности воздуха и скорости ветра на теплоощущения человека.
Tes - Эффективная температура на солнце - температура, которую ощущает человек, с поправкой на солнечный нагрев. Характеристика знойности погоды. Зависит от высоты солнца над горизонтом, облачности и скорости ветра. Ночью, в пасмурную погоду, а также при ветре 12 м/с и более поправка равна нулю.
P - Атмосферное давление - приведенное к уровню моря атмосферное давление.
Po - Атмосферное давление - измеренное на уровне метеостанции атмосферное давление.
Tmin - Минимальная температура - минимум температуры воздуха на высоте 2 м над землей.
Tmax - Максимальная температура - максимум температуры воздуха на высоте 2 м над землей.
R - Количество осадков - Количество выпавших осадков за период времени, мм. При наведении курсора мыши на число - период времени, за который выпало указанное количество осадков.
R24 - Количество осадков - Количество выпавших осадков за 24 часа, мм.
S - Снежный покров - Высота снежного покрова, см. При наведении курсора мыши на число - состояние снежного покрова и степень покрытия местности в баллах.